Volver al catálogo

SL-12 R/B(2)

ActivoGEO
NORAD 19094·ROCKET BODY·🇷🇺 Russia

Lanzado May 6, 1988 desde Baikonur Cosmodrome

Loading…

TLE

ActualizadoSource: Space-Track

Época: Sep 14, 2026, 09:48 UTC

1 19094U 88036E   26257.40836410 -.00000068  00000-0  00000-0 0  9991
2 19094  10.0266 322.1035 0021717 190.7359 216.1579  1.01118705122738

Sigue SL-12 R/B(2) en tiempo real con AllMySat

Download on the App Store